When you browse on this site, cookies collect data to enhance your experience and personalize the content and advertising you see.
Visit our Privacy Policy to learn more. By continuing to use the site, you agree to this use of cookies and data.
  • In Spain
  • List of Countries
  • For 7 days
  • Water Temperature
  • Satellite Maps
  • Weather Map
  • Weather Widgets
  • user-avatar
    Login

    Hourly Weather Ischgl

    Today, 17 July, Wednesday

    Time Temperature Precipitation Wind Pressure Humidity
    00:00 +4°C° 0 mm 0 mps 574 mmHg 93%
    01:00 +3°C° 0 mm 0 mps 574 mmHg 93%
    02:00 +3°C° 0 mm 0 mps 574 mmHg 93%
    03:00 +3°C° 0 mm 0 mps 573 mmHg 93%
    04:00 +3°C° 0 mm 0 mps 573 mmHg 93%
    05:00 +4°C° 0 mm 0 mps 574 mmHg 86%
    06:00 +6°C° 0 mm 0 mps 575 mmHg 79%
    07:00 +8°C° 0 mm 0 mps 576 mmHg 70%
    08:00 +11°C° 0 mm 1 mps 577 mmHg 60%
    09:00 +13°C° 0 mm 1 mps 577 mmHg 50%
    10:00 +15°C° 0 mm 1 mps 578 mmHg 40%
    11:00 +15°C° 0 mm 1 mps 578 mmHg 39%
    12:00 +16°C° 0 mm 2 mps 578 mmHg 37%
    13:00 +17°C° 0 mm 2 mps 579 mmHg 36%
    14:00 +16°C° 0.1 mm 2 mps 578 mmHg 40%
    15:00 +16°C° 0.1 mm 2 mps 578 mmHg 45%
    16:00 +14°C° 0.1 mm 3 mps 578 mmHg 49%
    17:00 +14°C° 0.8 mm 2 mps 577 mmHg 61%
    18:00 +12°C° 0.8 mm 2 mps 576 mmHg 72%
    19:00 +9°C° 0.8 mm 2 mps 575 mmHg 84%
    20:00 +9°C° 0.2 mm 1 mps 575 mmHg 87%
    21:00 +7°C° 0.2 mm 1 mps 574 mmHg 90%
    22:00 +6°C° 0.2 mm 1 mps 573 mmHg 93%
    23:00 +5°C° 0 mm 0 mps 573 mmHg 93%

    Tomorrow, 18 July, Thursday

    Time Temperature Precipitation Wind Pressure Humidity
    00:00 +4°C° 0 mm 0 mps 573 mmHg 93%
    01:00 +4°C° 0 mm 0 mps 573 mmHg 93%
    02:00 +4°C° 0 mm 0 mps 573 mmHg 92%
    03:00 +4°C° 0 mm 0 mps 573 mmHg 91%
    04:00 +4°C° 0 mm 0 mps 573 mmHg 90%
    05:00 +5°C° 0 mm 0 mps 573 mmHg 86%
    06:00 +6°C° 0 mm 0 mps 574 mmHg 82%
    07:00 +7°C° 0 mm 0 mps 574 mmHg 78%
    08:00 +10°C° 0.1 mm 1 mps 575 mmHg 73%
    09:00 +11°C° 0.1 mm 1 mps 576 mmHg 67%
    10:00 +12°C° 0.1 mm 2 mps 576 mmHg 62%
    11:00 +12°C° 0.4 mm 2 mps 576 mmHg 61%
    12:00 +13°C° 0.4 mm 2 mps 577 mmHg 60%
    13:00 +13°C° 0.4 mm 2 mps 577 mmHg 59%
    14:00 +13°C° 0.6 mm 2 mps 577 mmHg 62%
    15:00 +13°C° 0.6 mm 2 mps 577 mmHg 64%
    16:00 +13°C° 0.6 mm 2 mps 577 mmHg 66%
    17:00 +12°C° 0.5 mm 2 mps 576 mmHg 72%
    18:00 +10°C° 0.5 mm 2 mps 576 mmHg 77%
    19:00 +10°C° 0.5 mm 1 mps 576 mmHg 82%
    20:00 +9°C° 0 mm 1 mps 575 mmHg 85%
    21:00 +7°C° 0 mm 1 mps 575 mmHg 89%
    22:00 +6°C° 0 mm 1 mps 575 mmHg 93%
    23:00 +4°C° 0 mm 0 mps 574 mmHg 93%

    Day after tomorrow, 19 July, Friday

    Time Temperature Precipitation Wind Pressure Humidity
    00:00 +4°C° 0 mm 0 mps 574 mmHg 93%
    01:00 +4°C° 0 mm 0 mps 574 mmHg 93%
    02:00 +4°C° 0 mm 0 mps 574 mmHg 92%
    03:00 +4°C° 0 mm 0 mps 574 mmHg 92%
    04:00 +4°C° 0 mm 0 mps 574 mmHg 92%
    05:00 +5°C° 0 mm 0 mps 575 mmHg 87%
    06:00 +6°C° 0 mm 0 mps 576 mmHg 83%
    07:00 +8°C° 0 mm 0 mps 577 mmHg 79%
    08:00 +9°C° 0 mm 0 mps 577 mmHg 72%
    09:00 +11°C° 0 mm 0 mps 578 mmHg 64%
    10:00 +13°C° 0 mm 0 mps 579 mmHg 57%
    11:00 +15°C° 0 mm 1 mps 579 mmHg 54%
    12:00 +16°C° 0 mm 1 mps 580 mmHg 51%
    13:00 +18°C° 0 mm 1 mps 580 mmHg 48%
    14:00 +16°C° 0.3 mm 1 mps 580 mmHg 53%
    15:00 +15°C° 0.3 mm 2 mps 579 mmHg 58%
    16:00 +15°C° 0.3 mm 2 mps 579 mmHg 64%
    17:00 +14°C° 1 mm 2 mps 579 mmHg 72%
    18:00 +13°C° 1 mm 1 mps 578 mmHg 80%
    19:00 +11°C° 1 mm 1 mps 578 mmHg 88%
    20:00 +10°C° 0.3 mm 1 mps 578 mmHg 90%
    21:00 +8°C° 0.3 mm 0 mps 577 mmHg 93%
    22:00 +6°C° 0.3 mm 0 mps 577 mmHg 95%
    23:00 +6°C° 0 mm 0 mps 577 mmHg 94%

    20 July, Saturday

    Time Temperature Precipitation Wind Pressure Humidity
    00:00 +7°C° 0 mm 1 mps 576 mmHg 94%
    01:00 +7°C° 0 mm 1 mps 576 mmHg 94%
    02:00 +7°C° 0 mm 1 mps 576 mmHg 94%
    03:00 +7°C° 0 mm 1 mps 576 mmHg 94%
    04:00 +5°C° 0 mm 2 mps 576 mmHg 94%
    05:00 +7°C° 0 mm 2 mps 576 mmHg 91%
    06:00 +9°C° 0 mm 1 mps 577 mmHg 88%
    07:00 +10°C° 0 mm 1 mps 578 mmHg 85%
    08:00 +12°C° 0 mm 1 mps 579 mmHg 77%
    09:00 +14°C° 0 mm 1 mps 580 mmHg 69%
    10:00 +15°C° 0 mm 1 mps 581 mmHg 61%
    11:00 +15°C° 0.6 mm 1 mps 581 mmHg 63%
    12:00 +15°C° 0.6 mm 1 mps 581 mmHg 65%
    13:00 +15°C° 0.6 mm 1 mps 580 mmHg 67%
    14:00 +15°C° 1.7 mm 1 mps 580 mmHg 67%
    15:00 +15°C° 1.7 mm 1 mps 580 mmHg 68%
    16:00 +15°C° 1.7 mm 2 mps 580 mmHg 69%
    17:00 +14°C° 0.9 mm 1 mps 580 mmHg 73%
    18:00 +14°C° 0.9 mm 1 mps 580 mmHg 76%
    19:00 +13°C° 0.9 mm 1 mps 580 mmHg 80%
    20:00 +11°C° 0 mm 1 mps 580 mmHg 82%
    21:00 +10°C° 0 mm 1 mps 579 mmHg 84%
    22:00 +8°C° 0 mm 1 mps 579 mmHg 86%
    23:00 +8°C° 0 mm 1 mps 579 mmHg 85%

    21 July, Sunday

    Time Temperature Precipitation Wind Pressure Humidity
    00:00 +8°C° 0 mm 1 mps 579 mmHg 84%
    01:00 +7°C° 0 mm 1 mps 578 mmHg 84%
    02:00 +7°C° 0 mm 1 mps 578 mmHg 83%
    03:00 +7°C° 0 mm 1 mps 578 mmHg 82%
    04:00 +7°C° 0 mm 1 mps 578 mmHg 81%
    05:00 +9°C° 0 mm 1 mps 579 mmHg 75%
    06:00 +10°C° 0 mm 0 mps 580 mmHg 70%
    07:00 +12°C° 0 mm 0 mps 582 mmHg 64%
    08:00 +13°C° 0 mm 0 mps 582 mmHg 58%
    09:00 +16°C° 0 mm 1 mps 583 mmHg 51%
    10:00 +18°C° 0 mm 1 mps 584 mmHg 45%
    11:00 +19°C° 0 mm 1 mps 584 mmHg 43%
    12:00 +20°C° 0 mm 1 mps 585 mmHg 41%
    13:00 +20°C° 0 mm 1 mps 585 mmHg 39%
    14:00 +19°C° 0.1 mm 2 mps 585 mmHg 43%
    15:00 +19°C° 0.1 mm 2 mps 584 mmHg 47%
    16:00 +18°C° 0.1 mm 2 mps 584 mmHg 51%
    17:00 +17°C° 0.5 mm 2 mps 584 mmHg 62%
    18:00 +16°C° 0.5 mm 1 mps 583 mmHg 72%
    19:00 +14°C° 0.5 mm 1 mps 583 mmHg 83%
    20:00 +12°C° 0.1 mm 1 mps 582 mmHg 86%
    21:00 +10°C° 0.1 mm 0 mps 581 mmHg 90%
    22:00 +8°C° 0.1 mm 0 mps 580 mmHg 93%
    23:00 +8°C° 0 mm 0 mps 580 mmHg 93%

    22 July, Monday

    Time Temperature Precipitation Wind Pressure Humidity
    00:00 +7°C° 0 mm 0 mps 580 mmHg 92%
    01:00 +7°C° 0 mm 0 mps 580 mmHg 92%
    02:00 +7°C° 0 mm 0 mps 579 mmHg 91%
    03:00 +8°C° 0 mm 1 mps 579 mmHg 91%
    04:00 +7°C° 0 mm 1 mps 579 mmHg 90%
    05:00 +9°C° 0 mm 1 mps 580 mmHg 84%
    06:00 +10°C° 0 mm 0 mps 581 mmHg 77%
    07:00 +13°C° 0 mm 0 mps 582 mmHg 71%
    08:00 +15°C° 0 mm 1 mps 583 mmHg 63%
    09:00 +18°C° 0 mm 1 mps 584 mmHg 54%
    10:00 +20°C° 0 mm 1 mps 584 mmHg 46%
    11:00 +20°C° 0 mm 1 mps 584 mmHg 43%
    12:00 +21°C° 0 mm 1 mps 584 mmHg 41%
    13:00 +20°C° 0 mm 2 mps 584 mmHg 38%
    14:00 +20°C° 0 mm 2 mps 584 mmHg 40%
    15:00 +20°C° 0 mm 2 mps 584 mmHg 42%
    16:00 +20°C° 0 mm 2 mps 583 mmHg 44%
    17:00 +18°C° 0.2 mm 2 mps 583 mmHg 52%
    18:00 +17°C° 0.2 mm 2 mps 582 mmHg 61%
    19:00 +16°C° 0.2 mm 1 mps 582 mmHg 69%
    20:00 +14°C° 0.1 mm 1 mps 581 mmHg 74%
    21:00 +12°C° 0.1 mm 1 mps 580 mmHg 78%
    22:00 +10°C° 0.1 mm 1 mps 579 mmHg 83%
    23:00 +10°C° 0 mm 1 mps 579 mmHg 83%
    Show more